Location: ???? ????
(31.2831°N, 45.5190°E)
Time: 04:46:16
(UTC+00:00)

Cosmos 220 Rocket - Pass Details

Date: 24 February 2021
Orbit: 573 x 617 km, 74.0° (Epoch: 14 April)

Event Time Altitude Azimuth Distance (km) Brightness Sun altitude
Rises 15:37:10 0° 202° (SSW) 2,765 7.8 -10.3°
Reaches altitude 10° 15:39:23 10° 206° (SSW) 1,871 6.9 -10.8°
Maximum altitude 15:43:30 63° 287° (WNW) 644 4.4 -11.7°
Drops below altitude 10° 15:47:40 10° 9° (N) 1,890 6.4 -12.5°
Sets 15:49:55 0° 13° (NNE) 2,797 7.3 -13.0°
